This demonstration page uses our WeatherBlox Daily Observations layout. Learn more.

Left ArrowRight Arrow

39.08367, -84.50855

Hourly Observations for August 20, 2017

Temp ( °F °C ) Dew Point ( °F °C ) Humidity (%) Winds ( mph kmh ) Pressure ( in mb ) Visibility ( mi km ) Precip ( " mm )
12:53 am 00:53 Clear 70 21.1 69 20.6 97 97 N 3 6 30.01 1016 8 13 N/A
1:53 am 01:53 Cloudy 70 21.1 69 20.6 97 97 NNE 3 6 30.01 1016 7 11 N/A
2:53 am 02:53 Mostly Cloudy 70 21.1 69 20.6 97 97 ESE 3 6 30.01 1016 8 13 N/A
3:53 am 03:53 Cloudy 70 21.1 69 20.6 97 97 N N/A 30.01 1016 10 16 N/A
4:53 am 04:53 Clear with Mist and Fog 67 19.4 67 19.4 100 100 N N/A 30.03 1017 6 10 N/A
5:53 am 05:53 Clear with Mist and Fog 68 20 68 20 100 100 N N/A 30.03 1017 4 6 N/A
6:20 am 06:20 Clear with Mist and Fog 67 19.4 67 19.4 100 100 N N/A 30.03 1017 1 2 N/A
6:26 am 06:26 Clear with Mist and Fog 68 20 68 20 100 100 N N/A 30.03 1017 3 5 N/A
6:41 am 06:41 Clear with Mist and Fog 67 19.4 67 19.4 100 100 N N/A 30.03 1017 1 2 N/A
6:47 am 06:47 Mostly Clear with Patchy Fog 66 19 66 19 100 100 N N/A 30.03 1017 5 8 N/A
6:53 am 06:53 Clear with Patchy Fog 67 19.4 67 19.4 100 100 N N/A 30.04 1017 5 8 N/A
7:53 am 07:53 Sunny 68 20 68 20 100 100 N N/A 30.06 1018 7 11 N/A
8:53 am 08:53 Sunny 73 22.8 70 21.1 90 90 N N/A 30.07 1018 8 13 N/A
9:53 am 09:53 Sunny 77 25 71 21.7 82 82 SSW 5 7 30.08 1019 10 16 N/A
10:53 am 10:53 Sunny 82 27.8 72 22.2 72 72 SSE 5 7 30.07 1018 10 16 N/A
11:53 am 11:53 Mostly Sunny 84 28.9 71 21.7 65 65 S 7 11 30.09 1019 10 16 N/A
12:53 pm 12:53 Mostly Sunny 87 30.6 72 22.2 61 61 SSE 8 13 30.07 1018 10 16 N/A
1:53 pm 13:53 Mostly Cloudy 87 30.6 69 20.6 55 55 W 5 7 30.07 1018 10 16 N/A
2:53 pm 14:53 Partly Cloudy 89 31.7 68 20 50 50 SSW 5 7 30.05 1018 10 16 N/A
3:53 pm 15:53 Mostly Cloudy 90 32.2 69 20.6 50 50 SW 10 17 30.03 1017 10 16 N/A
4:53 pm 16:53 Partly Cloudy 87 30.6 69 20.6 55 55 S 8 13 30.02 1017 10 16 N/A
5:53 pm 17:53 Mostly Cloudy 88 31.1 71 21.7 57 57 SSW 10 17 30.03 1017 10 16 N/A
6:53 pm 18:53 Mostly Cloudy 85 29.4 72 22.2 65 65 S 7 11 30.04 1017 10 16 N/A
7:53 pm 19:53 Partly Cloudy 80 26.7 71 21.7 74 74 S 3 6 30.06 1018 10 16 N/A
8:53 pm 20:53 Clear 77 25 71 21.7 82 82 N N/A 30.06 1018 10 16 N/A
9:53 pm 21:53 Clear 73 22.8 70 21.1 90 90 N N/A 30.07 1018 10 16 N/A
10:53 pm 22:53 Clear 72 22.2 70 21.1 94 94 N N/A 30.09 1019 10 16 N/A
11:53 pm 23:53 Clear 70 21.1 70 21.1 100 100 N N/A 30.10 1019 8 13 N/A

Powered by AerisWeather